SkySat C6

operational
NORAD ID: 42992 Int'l Des: 2017-068 Owner: PLABST Country: US
LEOCIRCULARRETROGRADESSO
追跡 地上

SkySat C6について

説明を読み込み中...

リアルタイム位置

3D地球を読み込み中...

次回通過

高度履歴

Altitude vs Time

uPlot chart will show altitude changes over time

軌道要素

1 42992U 17068F 26072.35900638 .00011354 00000-0 36304-3 0 9992
2 42992 97.4400 209.1966 0003732 119.3085 240.8530 15.32594872467631
Epoch: Mar 13, 2026 • Age: 28 hours

現在のステータス

高度 478.4 km
速度 7.63 km/s
衛星直下点 70.71°N, 39.56°W
打ち上げ日 Oct 31, 2017
運用期間 8.3 years
タイプ earth observation

技術仕様

分類 Payload
質量 110.00 kg
乾燥質量 110.00 kg
総質量 110.00 kg
長さ 1.20 m
直径 0.50 m
スパン 0.50 m
形状 Box
製造者 SSLMAX
バスタイプ SkySat-Gen2
フェーズステータス In Orbit
所有者/国 PLABST/US

大規模コンステレーション

Loading constellations...